Back to catalog

STARLINK-31425

AliveCommunicationsVLEO
NORAD 59253·PAYLOAD·🇺🇸 United States

Launched Mar 16, 2024 from Cape Canaveral Space Force Station

Loading…

Next Passes (next 24 hours)

TLE

FreshSource: CelesTrak SupGP

Epoch: Sep 14, 2026, 20:56 UTC

1 59253C 24049Y   26257.87270833 -.00035383  00000+0 -12815-2 0  2572
2 59253  43.0007 154.9475 0001264 264.3010  11.5231 15.27597738    12

Track STARLINK-31425 in real time with AllMySat

Download on the App Store